Eastsound, WA

6:48 AM PST on December 04, 2016 (GMT -0800)
Orcas Island

Weather History for KORS - September, 2013

Change the Weather History Date:

Friday, September 20, 2013

  Actual Average (KBLI) Record (KBLI)
Temperature  
Mean Temperature 56 °F 56 °F  
Max Temperature 64 °F 66 °F 89 °F (1974)
Min Temperature 48 °F 47 °F 35 °F (1968)
Degree Days  
Heating Degree Days 9 9  
Month to date heating degree days 129  
Cooling Degree Days 0 0  
Month to date cooling degree days 0  
Year to date cooling degree days 40  
Growing Degree Days 6 (Base 50)    
Moisture  
Dew Point 51 °F    
Average Humidity 85    
Maximum Humidity 100    
Minimum Humidity 59    
Precipitation  
Precipitation 0.00 in 0.05 in 0.55 in (2008)
Month to date precipitation 1.10  
Year to date precipitation 21.45  
Sea Level Pressure  
Sea Level Pressure 29.64 in    
Wind  
Wind Speed 1 mph (WNW)    
Max Wind Speed 9 mph    
Max Gust Speed -    
Visibility 10 miles    
Events Rain    
T = Trace of Precipitation, MM = Missing Value Source: NWS Daily Summary

Daily Weather History Graph

Daily Weather History Graph

Search for Another Location

Airport or City:

Trip Planner

Search our weather history database for the weather conditions in past years. The results will help you decide how hot, cold, wet, or windy it might be!

Date:

Astronomy

Sep. 20, 2013 Rise Set
Actual Time 6:55 AM PDT 7:12 PM PDT
Civil Twilight 6:24 AM PDT 7:44 PM PDT
Nautical Twilight 5:47 AM PDT 8:21 PM PDT
Astronomical Twilight 5:08 AM PDT 8:59 PM PDT
Moon 7:37 PM PDT (9/20) 8:26 AM PDT (9/20)
Length of Visible Light 13h 19m
Length of Day
12h 17m
Full, 98% of the Moon is Illuminated
Sep 20
Full
Sep 26
Last Quarter
Oct 4
New
Oct 11
First Quarter
Oct 18
Full

Hourly Weather History & Observations

Time (PDT) Temp. Dew Point Humidity Pressure Visibility Wind Dir Wind Speed Gust Speed Precip Events Conditions
12:15 AM 50.0 °F 50.0 °F 100% 29.73 in 10.0 mi Calm Calm - N/A   Clear
12:35 AM 51.8 °F 50.0 °F 94% 29.73 in 10.0 mi Calm Calm - N/A   Clear
12:55 AM 50.0 °F 50.0 °F 100% 29.73 in 10.0 mi Calm Calm - N/A   Clear
1:15 AM 51.8 °F 50.0 °F 94% 29.73 in 10.0 mi Calm Calm - N/A   Clear
1:35 AM 50.0 °F 50.0 °F 100% 29.73 in 10.0 mi Calm Calm - N/A   Clear
1:55 AM 50.0 °F 48.2 °F 94% 29.73 in 10.0 mi Calm Calm - N/A   Clear
2:15 AM 50.0 °F 48.2 °F 94% 29.73 in 10.0 mi Calm Calm - N/A   Clear
2:35 AM 50.0 °F 50.0 °F 100% 29.72 in 10.0 mi Calm Calm - N/A   Clear
2:55 AM 48.2 °F 48.2 °F 100% 29.72 in 10.0 mi Calm Calm - N/A   Clear
3:15 AM 50.0 °F 48.2 °F 94% 29.71 in 10.0 mi Calm Calm - N/A   Clear
3:35 AM 50.0 °F 48.2 °F 94% 29.70 in 10.0 mi Calm Calm - N/A   Clear
3:55 AM 50.0 °F 50.0 °F 100% 29.70 in 10.0 mi Calm Calm - N/A   Clear
4:15 AM 50.0 °F 50.0 °F 100% 29.70 in 10.0 mi Calm Calm - N/A   Clear
4:35 AM 50.0 °F 48.2 °F 94% 29.69 in 10.0 mi Calm Calm - N/A   Clear
4:55 AM 48.2 °F 48.2 °F 100% 29.68 in 10.0 mi Calm Calm - N/A   Clear
5:15 AM 48.2 °F 48.2 °F 100% 29.68 in 10.0 mi Calm Calm - N/A   Clear
5:35 AM 50.0 °F 48.2 °F 94% 29.67 in 10.0 mi Calm Calm - N/A   Clear
5:55 AM 48.2 °F 48.2 °F 100% 29.67 in 10.0 mi Calm Calm - N/A   Clear
6:15 AM 48.2 °F 48.2 °F 100% 29.66 in 10.0 mi Calm Calm - N/A   Clear
6:35 AM 48.2 °F 48.2 °F 100% 29.66 in 10.0 mi Calm Calm - N/A   Clear
6:55 AM 48.2 °F 48.2 °F 100% 29.65 in 10.0 mi Calm Calm - N/A   Clear
7:15 AM 48.2 °F 48.2 °F 100% 29.65 in 10.0 mi Calm Calm - N/A   Clear
7:35 AM 50.0 °F 48.2 °F 94% 29.65 in 9.0 mi Calm Calm - N/A   Clear
7:55 AM 50.0 °F 50.0 °F 100% 29.65 in 10.0 mi Calm Calm - N/A   Clear
8:15 AM 51.8 °F 50.0 °F 94% 29.65 in 10.0 mi Calm Calm - N/A   Clear
8:35 AM 53.6 °F 51.8 °F 94% 29.64 in 10.0 mi Calm Calm - N/A   Clear
8:55 AM 55.4 °F 51.8 °F 88% 29.64 in 10.0 mi Calm Calm - N/A   Clear
9:15 AM 53.6 °F 50.0 °F 88% 29.64 in 10.0 mi Calm Calm - N/A   Clear
9:35 AM 55.4 °F 51.8 °F 88% 29.64 in 10.0 mi Calm Calm - N/A   Clear
9:55 AM 55.4 °F 50.0 °F 82% 29.63 in 10.0 mi Calm Calm - N/A   Clear
10:15 AM 55.4 °F 50.0 °F 82% 29.63 in 10.0 mi Calm Calm - N/A   Clear
10:35 AM 57.2 °F 50.0 °F 77% 29.63 in 10.0 mi Calm Calm - N/A   Clear
10:55 AM 57.2 °F 50.0 °F 77% 29.62 in 10.0 mi Calm Calm - N/A   Clear
11:15 AM 59.0 °F 50.0 °F 72% 29.63 in 10.0 mi Calm Calm - N/A   Clear
11:35 AM 59.0 °F 50.0 °F 72% 29.62 in 10.0 mi North 4.6 mph - N/A   Clear
11:55 AM 59.0 °F 50.0 °F 72% 29.62 in 10.0 mi Calm Calm - N/A   Clear
12:15 PM 62.6 °F 48.2 °F 59% 29.61 in 10.0 mi Calm Calm - N/A   Clear
12:35 PM 62.6 °F 50.0 °F 63% 29.61 in 10.0 mi NNW 5.8 mph - N/A   Clear
12:55 PM 62.6 °F 48.2 °F 59% 29.61 in 10.0 mi NW 5.8 mph - N/A   Clear
1:15 PM 62.6 °F 48.2 °F 59% 29.61 in 10.0 mi NNW 6.9 mph - N/A   Clear
1:35 PM 62.6 °F 48.2 °F 59% 29.60 in 10.0 mi NNW 5.8 mph - N/A   Clear
1:55 PM 62.6 °F 50.0 °F 63% 29.59 in 10.0 mi NW 4.6 mph - N/A   Clear
2:15 PM 62.6 °F 50.0 °F 63% 29.59 in 10.0 mi NW 5.8 mph - N/A   Clear
2:35 PM 64.4 °F 50.0 °F 59% 29.59 in 10.0 mi Calm Calm - N/A   Clear
2:55 PM 62.6 °F 50.0 °F 63% 29.58 in 10.0 mi Calm Calm - N/A   Clear
3:15 PM 62.6 °F 48.2 °F 59% 29.58 in 10.0 mi Calm Calm - N/A   Clear
3:35 PM 62.6 °F 48.2 °F 59% 29.58 in 10.0 mi Calm Calm - N/A   Clear
3:55 PM 62.6 °F 48.2 °F 59% 29.58 in 10.0 mi NW 3.5 mph - N/A   Clear
4:15 PM 62.6 °F 50.0 °F 63% 29.58 in 10.0 mi NNW 4.6 mph - N/A   Clear
4:35 PM 62.6 °F 50.0 °F 63% 29.58 in 10.0 mi NW 3.5 mph - N/A   Clear
4:55 PM 60.8 °F 50.0 °F 68% 29.58 in 10.0 mi Calm Calm - N/A   Clear
5:15 PM 62.6 °F 50.0 °F 63% 29.59 in 10.0 mi Calm Calm - N/A   Clear
5:35 PM 62.6 °F 51.8 °F 68% 29.58 in 10.0 mi North - - N/A   Clear
5:55 PM 60.8 °F 51.8 °F 72% 29.59 in 10.0 mi South 3.5 mph - N/A   Partly Cloudy
6:15 PM 60.8 °F 51.8 °F 72% 29.59 in 10.0 mi SW 4.6 mph - N/A   Clear
6:35 PM 59.0 °F 51.8 °F 77% 29.59 in 10.0 mi South 3.5 mph - N/A   Partly Cloudy
6:55 PM 59.0 °F 51.8 °F 77% 29.60 in 10.0 mi Calm Calm - N/A   Mostly Cloudy
7:15 PM 59.0 °F 51.8 °F 77% 29.61 in 10.0 mi Calm Calm - N/A Rain Light Rain
7:35 PM 57.2 °F 55.4 °F 94% 29.61 in 5.0 mi North - - N/A Rain Light Rain
7:55 PM 57.2 °F 55.4 °F 94% 29.62 in 6.0 mi Calm Calm - N/A Rain Light Rain
8:15 PM 57.2 °F 55.4 °F 94% 29.62 in 10.0 mi Calm Calm - N/A   Mostly Cloudy
8:35 PM 55.4 °F 55.4 °F 100% 29.63 in 9.0 mi Calm Calm - N/A Rain Light Rain
8:55 PM 55.4 °F 55.4 °F 100% 29.62 in 5.0 mi Calm Calm - N/A Rain Light Rain
9:15 PM 55.4 °F 55.4 °F 100% 29.62 in 9.0 mi Calm Calm - N/A Rain Light Rain
9:35 PM 55.4 °F 55.4 °F 100% 29.63 in 5.0 mi Calm Calm - N/A Rain Light Rain
9:55 PM 55.4 °F 55.4 °F 100% 29.63 in 10.0 mi Calm Calm - N/A   Overcast
10:15 PM 55.4 °F 55.4 °F 100% 29.62 in 10.0 mi Calm Calm - N/A   Mostly Cloudy
10:35 PM 55.4 °F 55.4 °F 100% 29.62 in 10.0 mi Calm Calm - N/A   Mostly Cloudy
10:55 PM 55.4 °F 55.4 °F 100% 29.63 in 10.0 mi Calm Calm - N/A   Mostly Cloudy
11:15 PM 57.2 °F 55.4 °F 94% 29.63 in 10.0 mi SW 3.5 mph - N/A   Overcast
11:35 PM 57.2 °F 55.4 °F 94% 29.63 in 10.0 mi South 6.9 mph - N/A   Mostly Cloudy
11:55 PM 57.2 °F 55.4 °F 94% 29.62 in 10.0 mi SSW 9.2 mph - N/A   Mostly Cloudy